Location: ??????????
(54.8537°N, 38.8755°E)
Time: 01:25:55
(UTC+00:00)

Transit 4A - Pass Details

Date: 20 September 2024
Orbit: 865 x 977 km, 66.8° (Epoch: 09 October)

Event Time Altitude Azimuth Distance (km) Brightness Sun altitude
Exits shadow 00:24:54 48° 234° (SW) 1,165 7.9 -22.4°
Maximum altitude 00:26:41 80° 313° (NW) 921 7.8 -22.2°
Drops below altitude 10° 00:32:49 10° 42° (NE) 2,632 11.4 -21.5°
Sets 00:35:23 0° 43° (NE) 3,595 12.4 -21.2°
